Location: ????????
(55.6333°N, 37.7000°E)
Time: 01:49:22
(UTC+00:00)

COSMOS 2455 - Pass Details

Date: 19 May 2025
Orbit: 900 x 908 km, 67.1° (Epoch: 13 June)

Event Time Altitude Azimuth Distance (km) Brightness Sun altitude
Rises 21:46:46 0° 308° (NW) 3,543 6.4 -14.3°
Reaches altitude 10° 21:49:30 10° 317° (NW) 2,601 5.8 -14.2°
Maximum altitude 21:55:04 37° 24° (NNE) 1,391 4.5 -14.1°
Drops below altitude 10° 22:00:37 10° 91° (E) 2,598 5.3 -14.0°
Sets 22:03:20 0° 100° (E) 3,538 5.9 -14.0°
